{"data":{"norad_id":61541,"epoch":"2026-09-21T14:29:36.119328Z","epoch_age_seconds":96724,"freshness":"FRESH","line1":"1 61541U 24184K   26264.60389027  .00000504  00000+0  90236-5 0  9994","line2":"2 61541  53.1607 350.7868 0001379  83.0774 277.0400 15.69704515111182","mean_motion":15.69704515,"eccentricity":0.0001379,"inclination_deg":53.1607,"raan_deg":350.7868,"arg_perigee_deg":83.0774,"mean_anomaly_deg":277.04,"bstar":9.0236e-6,"rev_number":11118,"period_min":91.7370107711,"perigee_km":358.81329286028,"apogee_km":360.6716000116,"semimajor_km":6737.8794464359,"source":"CELESTRAK","updated_at":"2026-09-22T09:00:49.365866Z"}}